Погода в Старом Ирюке

Россия / Кировская область     56°33′37″N   50°33′47″E
темп.,
°C
ветер,
м/с
пор.,
м/с
влажн.,
%
обл.,
%
осадки,
мм/ч
давл.,
гПа
погр.,
м
17 апреля, сб
сб1700:00+3св310740 0.0 1027206
03:00+1св38770 0.0 1028159
06:00+2св39730 0.0 1029219
09:00+7всв57460 0.0 1028607
12:00+10св56400 0.0 10271041
15:00+11св45413 0.0 10261174
18:00+9св35560 0.0 1026114
21:00+5ссв22690 0.0 102623
18 апреля, вс
вс1800:00+3ссв33760 0.0 102641
03:00+2ссв22810 0.0 102526
06:00+3ссв24800 0.0 1026132
09:00+8св45585 0.0 1025676
12:00+11св664921 0.0 10251584
15:00+9св775975 0.0 10261204
18:00+6всв586199 0.0 1027981
21:00+4всв6124880 0.0 1029554
19 апреля, пн
пн1900:00+2всв61260100 0.0 1030506
03:00+1всв61258100 0.0 1031461
06:000всв61356100 0.0 1032604
09:00+4в811364 0.0 10331318
12:00+6в810290 0.0 10321643
15:00+7в79280 0.0 10321747
18:00+5в610380 0.0 1032433
21:00+1всв412530 0.0 1033290
20 апреля, вт
вт2000:000в412560 0.0 1034303
03:00−1в411550 0.0 1034281
06:000в510530 0.0 1035311
09:00+5вюв79350 0.0 10341042
12:00+8вюв68300 0.0 10331354
15:00+9юв68290 0.0 10321402
18:00+7вюв59419 0.0 1031239
21:00+3вюв51254100 0.0 1031237
21 апреля, ср
ср2100:00+2вюв51357100 0.0 1030282
03:00+1вюв51361100 0.0 1030258
06:00+2юв71552100 0.0 1029492
09:00+7юв91340100 0.0 1027788
12:00+10ююв91333100 0.0 10271146
15:00+10ююв71237100 0.0 10261220
18:00+9ююв51142100 0.0 1026394
21:00+8ю51152100 0.0 1026610